Skip Page Navigation
NASA JPL Caltech
NASA Logo - Jet Propulsion Laboratory + View the NASA Portal
+ Near-Earth Object (NEO) Program
Search JPL
JPL Home Earth Solar System Stars & Galaxies Technology
JPL Solar System Dynamics
BODIES ORBITS EPHEMERIDES TOOLS PHYSICAL DATA DISCOVERY FAQ SITE MAP
JPL Small-Body Database Browser
Search: [ help ]  
12447 Yatescup (1996 XA12)
Classification: Main-belt Asteroid          SPK-ID: 2012447
Ephemeris | Orbit Diagram | Orbital Elements | Physical Parameters | Discovery Circumstances | Close-Approach Data ]

[ hide orbit diagram ]
Orbit Diagram
Note: Make sure you have Java enabled on your browser to see the applet. This applet is provided as a 3D orbit visualization tool. The applet was implemented using 2-body methods, and hence should not be used for determining accurate long-term trajectories (over several years or decades) or planetary encounter circumstances. For accurate long-term ephemerides, please instead use our Horizons system.
Orbit Viewer

Additional Notes: the orbits shown in the applet are color coded. The planets are white lines, and the asteroid/comet is a blue line. The bright white line indicates the portion of the orbit that is above the ecliptic plane, and the darker portion is below the ecliptic plane. Likewise for the asteroid/comet orbit, the light blue indicates the portion above the ecliptic plane, and the dark blue the portion below the ecliptic plane.

Orbit Viewer applet originally written and kindly provided by Osamu Ajiki (AstroArts), and further modified by Ron Baalke (JPL).


Orbital Elements at Epoch 2456400.5 (2013-Apr-18.0) TDB
Reference: JPL 1 (heliocentric ecliptic J2000)
 Element Value Uncertainty (1-sigma)   Units 
e .208998223709619 5.8228e-08  
a 2.163453145891809 1.8158e-08 AU
q 1.711295281321434 1.2383e-07 AU
i 5.4038446138678 6.4167e-06 deg
node 86.50578314669393 6.6959e-05 deg
peri 192.8041261401371 7.0454e-05 deg
M 241.6710357501223 3.1724e-05 deg
tp 2456782.539466845418
(2014-May-05.03946685)
0.00010631 JED
period 1162.30382760654
3.18
1.4633e-05
4.006e-08
d
yr
n .3097296863775503 3.8995e-09 deg/d
Q 2.615611010462185 2.1954e-08 AU
  Orbit Determination Parameters
   # obs. used (total)      970  
   data-arc span      12256 days (33.56 yr)  
   first obs. used      1979-09-22  
   last obs. used      2013-04-12  
   planetary ephem.      DE405  
   SB-pert. ephem.      SB405-CPV-2  
   condition code      0  
   fit RMS      .51739  
   data source      ORB  
   producer      Otto Matic  
   solution date      2013-Apr-29 13:48:35  

Additional Information
 Earth MOID = .6955 AU 
 T_jup = 3.661 
[ show covariance matrix ]

Ephemeris | Orbit Diagram | Orbital Elements | Physical Parameters | Discovery Circumstances | Close-Approach Data ]

Physical Parameter Table
Parameter Symbol Value Units Sigma Reference Notes
absolute magnitude H 14.2 mag n/a PDS3 (MPC 36725)  

12447 Yatescup           Discovered 1996 Dec. 4 by Spacewatch at Kitt Peak.
The Yates Cup is a trophy awarded in the autumn of every year to the winner of the Ontario Universities Athletics football championship. Founded by Henry Brydges Yates of McGill University and first presented in 1898, it is the oldest football trophy that has been contested continually.
NOTE: some special characters may not display properly (any characters within {} are an attempt to place the proper accent above a character)
Reference: 20020427/MPCPages.arcLast Updated: 2003-10-02

[ show close-approach data ]
Alternate Designations
 1996 XA12 = 1979 SW1 = 1985 JA1 = 1998 NK 
Ephemeris | Orbit Diagram | Orbital Elements | Physical Parameters | Discovery Circumstances | Close-Approach Data ]
ABOUT SSD CREDITS/AWARDS PRIVACY/COPYRIGHT GLOSSARY LINKS
FirstGov 2013-Jun-20 01:26 UT
(server date/time)  
NASA Home Page
Site Manager:   Donald K. Yeomans
Webmaster  Alan B. Chamberlin